DAL1531 KATL-KABQ

Flight info

Callsign DAL1531
Flight time N/A
Altitude 32000
Route CUTTN2 HANKO MEMFS TUL IFI KIIDD COLTR4
Aircraft B739/M-SDE2E3FGHIRWXY/LB1

Departure

Time N/A
Airport Hartsfield Jackson Atlanta International Airport (KATL)

Arrival

Time 2026-05-08 01:34
Airport Albuquerque International Sunport (KABQ)
Time Latitude Longitude Altitude Speed Heading
2026-05-08 00:50 35.52398 -101.38975 31982 ft 401 kts 262°
2026-05-08 00:51 35.52067 -101.42374 31978 ft 401 kts 262°
2026-05-08 00:51 35.51399 -101.49190 31972 ft 402 kts 262°
2026-05-08 00:52 35.50728 -101.56013 31967 ft 403 kts 262°
2026-05-08 00:52 35.50050 -101.62855 31961 ft 404 kts 262°
2026-05-08 00:53 35.49366 -101.69716 31953 ft 405 kts 262°
2026-05-08 00:53 35.48682 -101.76548 31966 ft 407 kts 262°
2026-05-08 00:54 35.47986 -101.83451 31960 ft 409 kts 262°
2026-05-08 00:54 35.47282 -101.90389 31948 ft 410 kts 262°
2026-05-08 00:55 35.46574 -101.97337 31945 ft 411 kts 262°
2026-05-08 00:55 35.45861 -102.04286 31922 ft 411 kts 262°
2026-05-08 00:56 35.45144 -102.11247 31939 ft 411 kts 262°
2026-05-08 00:56 35.44420 -102.18217 31941 ft 412 kts 262°
2026-05-08 00:57 35.43693 -102.25187 31939 ft 412 kts 262°
2026-05-08 00:57 35.42960 -102.32172 31938 ft 412 kts 262°
2026-05-08 00:58 35.42224 -102.39147 31944 ft 412 kts 262°
2026-05-08 00:58 35.41483 -102.46129 31944 ft 414 kts 262°
2026-05-08 00:59 35.40734 -102.53151 31955 ft 417 kts 262°
2026-05-08 00:59 35.39975 -102.60221 31956 ft 419 kts 262°
2026-05-08 01:00 35.39214 -102.67274 31951 ft 421 kts 262°
2026-05-08 01:00 35.38435 -102.74452 31953 ft 423 kts 262°
2026-05-08 01:01 35.37660 -102.81551 31943 ft 424 kts 262°
2026-05-08 01:01 35.36872 -102.88729 31949 ft 426 kts 262°
2026-05-08 01:02 35.36075 -102.95950 31939 ft 427 kts 262°
2026-05-08 01:02 35.35274 -103.03171 31940 ft 428 kts 262°
2026-05-08 01:03 35.34466 -103.10409 31924 ft 429 kts 262°
2026-05-08 01:03 35.33654 -103.17645 31917 ft 430 kts 262°
2026-05-08 01:04 35.32836 -103.24895 31931 ft 430 kts 262°
2026-05-08 01:04 35.32011 -103.32171 31944 ft 432 kts 262°
2026-05-08 01:05 35.31179 -103.39460 31951 ft 433 kts 262°
2026-05-08 01:05 35.30341 -103.46769 31962 ft 434 kts 262°
2026-05-08 01:06 35.29502 -103.54044 31967 ft 435 kts 262°
2026-05-08 01:06 35.28651 -103.61379 31982 ft 436 kts 262°
2026-05-08 01:07 35.27794 -103.68737 31982 ft 437 kts 262°
2026-05-08 01:07 35.26929 -103.76119 31966 ft 439 kts 262°
2026-05-08 01:08 35.26057 -103.83516 31949 ft 439 kts 262°
2026-05-08 01:08 35.25178 -103.90935 31934 ft 440 kts 262°
2026-05-08 01:09 35.24293 -103.98359 31920 ft 442 kts 262°
2026-05-08 01:09 35.23400 -104.05822 31904 ft 444 kts 262°
2026-05-08 01:10 35.22506 -104.13247 31901 ft 445 kts 262°
2026-05-08 01:10 35.21600 -104.20733 31900 ft 445 kts 262°
2026-05-08 01:11 35.20687 -104.28236 31894 ft 446 kts 262°
2026-05-08 01:11 35.19769 -104.35743 31898 ft 447 kts 262°
2026-05-08 01:12 35.18845 -104.43256 31891 ft 447 kts 262°
2026-05-08 01:12 35.17915 -104.50783 31884 ft 448 kts 262°
2026-05-08 01:13 35.16985 -104.58263 31882 ft 447 kts 262°
2026-05-08 01:13 35.16046 -104.65779 31884 ft 447 kts 262°
2026-05-08 01:14 35.15103 -104.73294 31931 ft 447 kts 262°
2026-05-08 01:14 35.14158 -104.80788 31930 ft 446 kts 262°
2026-05-08 01:15 35.13207 -104.88286 31916 ft 446 kts 262°
2026-05-08 01:15 35.12253 -104.95778 31897 ft 446 kts 262°
2026-05-08 01:16 35.11293 -105.03276 31823 ft 449 kts 262°
2026-05-08 01:16 35.10773 -105.07078 31140 ft 456 kts 261°
2026-05-08 01:16 35.10185 -105.10881 30459 ft 455 kts 260°
2026-05-08 01:16 35.09572 -105.14654 29896 ft 450 kts 260°
2026-05-08 01:17 35.08963 -105.18382 29226 ft 446 kts 260°
2026-05-08 01:17 35.08364 -105.22084 28640 ft 441 kts 260°
2026-05-08 01:17 35.07780 -105.25732 28056 ft 436 kts 260°
2026-05-08 01:17 35.07204 -105.29351 27486 ft 432 kts 260°
2026-05-08 01:18 35.06636 -105.32929 26893 ft 428 kts 260°
2026-05-08 01:18 35.06073 -105.36478 26374 ft 423 kts 260°
2026-05-08 01:18 35.05516 -105.39984 25824 ft 420 kts 260°
2026-05-08 01:18 35.04961 -105.43470 25280 ft 416 kts 260°
2026-05-08 01:19 35.04411 -105.46912 24746 ft 413 kts 260°
2026-05-08 01:19 35.03868 -105.50297 24234 ft 410 kts 260°
2026-05-08 01:19 35.03324 -105.53689 23733 ft 406 kts 260°
2026-05-08 01:19 35.02783 -105.57064 23144 ft 403 kts 260°
2026-05-08 01:20 35.02246 -105.60407 22550 ft 400 kts 259°
2026-05-08 01:20 35.01713 -105.63719 22010 ft 396 kts 259°
2026-05-08 01:20 35.01184 -105.67001 21469 ft 392 kts 259°
2026-05-08 01:20 35.00661 -105.70246 20937 ft 388 kts 259°
2026-05-08 01:21 35.00142 -105.73459 20417 ft 385 kts 259°
2026-05-08 01:21 34.99624 -105.76653 19897 ft 382 kts 259°
2026-05-08 01:21 34.99110 -105.79822 19375 ft 379 kts 259°
2026-05-08 01:21 34.98599 -105.82972 18873 ft 377 kts 259°
2026-05-08 01:22 34.98090 -105.86096 18351 ft 375 kts 259°
2026-05-08 01:22 34.97584 -105.89205 17780 ft 373 kts 259°
2026-05-08 01:22 34.97080 -105.92295 17234 ft 370 kts 259°
2026-05-08 01:22 34.96578 -105.95363 16704 ft 367 kts 259°
2026-05-08 01:23 34.96087 -105.98357 16208 ft 363 kts 259°
2026-05-08 01:23 34.95651 -106.01373 15697 ft 360 kts 265°
2026-05-08 01:23 34.95589 -106.04413 15206 ft 357 kts 272°
2026-05-08 01:23 34.95647 -106.07433 14705 ft 355 kts 272°
2026-05-08 01:24 34.95704 -106.10441 14233 ft 353 kts 272°
2026-05-08 01:24 34.95749 -106.13371 14060 ft 342 kts 272°
2026-05-08 01:24 34.95783 -106.16228 13906 ft 331 kts 272°
2026-05-08 01:24 34.95811 -106.18988 13753 ft 320 kts 271°
2026-05-08 01:25 34.95837 -106.21651 13572 ft 311 kts 271°
2026-05-08 01:25 34.95862 -106.24277 13178 ft 310 kts 271°
2026-05-08 01:25 34.95888 -106.26896 12830 ft 307 kts 271°
2026-05-08 01:25 34.95913 -106.29452 12480 ft 302 kts 271°
2026-05-08 01:26 34.95937 -106.31986 12131 ft 295 kts 271°
2026-05-08 01:26 34.95960 -106.34454 11813 ft 287 kts 272°
2026-05-08 01:26 34.95981 -106.36865 11499 ft 281 kts 272°
2026-05-08 01:26 34.95981 -106.39236 11163 ft 280 kts 270°
2026-05-08 01:27 34.95906 -106.41612 10841 ft 281 kts 269°
2026-05-08 01:27 34.95817 -106.43977 10645 ft 280 kts 269°
2026-05-08 01:27 34.95730 -106.46349 10490 ft 280 kts 269°
2026-05-08 01:27 34.95648 -106.48731 10382 ft 283 kts 269°
2026-05-08 01:28 34.95568 -106.51118 10265 ft 283 kts 269°
2026-05-08 01:28 34.95489 -106.53514 10147 ft 282 kts 269°
2026-05-08 01:28 34.95407 -106.55900 10004 ft 282 kts 269°
2026-05-08 01:28 34.95305 -106.58305 9802 ft 284 kts 269°
2026-05-08 01:29 34.95199 -106.60655 9606 ft 270 kts 269°
2026-05-08 01:29 34.95099 -106.62851 9422 ft 249 kts 268°
2026-05-08 01:29 34.95007 -106.64881 9252 ft 232 kts 268°
2026-05-08 01:29 34.94922 -106.66793 9073 ft 220 kts 269°
2026-05-08 01:30 34.94929 -106.68616 8825 ft 210 kts 279°
2026-05-08 01:30 34.95332 -106.70248 8589 ft 202 kts 295°
2026-05-08 01:30 34.96095 -106.71674 8353 ft 200 kts 311°
2026-05-08 01:30 34.97137 -106.72756 8123 ft 201 kts 327°
2026-05-08 01:31 34.98420 -106.73443 7891 ft 203 kts 343°
2026-05-08 01:31 34.99812 -106.73673 7635 ft 206 kts 359°
2026-05-08 01:31 35.01229 -106.73425 7384 ft 206 kts 17°
2026-05-08 01:31 35.02499 -106.72660 7162 ft 204 kts 35°
2026-05-08 01:32 35.03513 -106.71462 6945 ft 204 kts 53°
2026-05-08 01:32 35.04194 -106.69972 6701 ft 197 kts 70°
2026-05-08 01:32 35.04480 -106.68406 6504 ft 180 kts 86°
2026-05-08 01:32 35.04474 -106.66931 6259 ft 173 kts 92°
2026-05-08 01:33 35.04450 -106.65491 6018 ft 168 kts 92°
2026-05-08 01:33 35.04444 -106.64066 5774 ft 168 kts 92°
2026-05-08 01:33 35.04442 -106.62652 5517 ft 166 kts 93°
2026-05-08 01:33 35.04432 -106.61239 5327 ft 164 kts 93°
2026-05-08 01:34 35.04422 -106.60016 5320 ft 116 kts 91°
2026-05-08 01:34 35.04417 -106.59306 5319 ft 58 kts 90°
2026-05-08 01:34 35.04417 -106.58936 5321 ft 22 kts 84°
2026-05-08 01:34 35.04514 -106.58812 5317 ft 19 kts 11°
2026-05-08 01:35 35.04580 -106.58904 5316 ft 17 kts 272°
2026-05-08 01:35 35.04584 -106.59043 5320 ft 16 kts 271°
2026-05-08 01:35 35.04582 -106.59176 5316 ft 15 kts 268°
2026-05-08 01:35 35.04583 -106.59305 5320 ft 16 kts 270°
2026-05-08 01:36 35.04584 -106.59454 5313 ft 18 kts 270°
2026-05-08 01:36 35.04585 -106.59605 5312 ft 19 kts 271°
2026-05-08 01:36 35.04586 -106.59771 5313 ft 20 kts 270°
2026-05-08 01:36 35.04578 -106.59933 5318 ft 19 kts 263°
2026-05-08 01:37 35.04574 -106.60038 5320 ft 18 kts 271°
2026-05-08 01:37 35.04575 -106.60192 5320 ft 18 kts 270°
2026-05-08 01:37 35.04575 -106.60388 5320 ft 17 kts 270°
2026-05-08 01:37 35.04576 -106.60532 5320 ft 18 kts 270°
2026-05-08 01:38 35.04577 -106.60686 5320 ft 18 kts 270°
2026-05-08 01:38 35.04578 -106.60789 5320 ft 19 kts 270°
2026-05-08 01:38 35.04579 -106.60954 5320 ft 21 kts 270°
2026-05-08 01:38 35.04579 -106.61127 5317 ft 20 kts 271°
2026-05-08 01:39 35.04580 -106.61294 5320 ft 19 kts 263°
2026-05-08 01:39 35.04555 -106.61451 5312 ft 19 kts 270°
2026-05-08 01:39 35.04556 -106.61610 5320 ft 18 kts 270°
2026-05-08 01:39 35.04555 -106.61759 5312 ft 18 kts 269°
2026-05-08 01:40 35.04554 -106.61905 5320 ft 17 kts 270°
2026-05-08 01:40 35.04623 -106.61993 5315 ft 16 kts 354°
2026-05-08 01:40 35.04732 -106.61979 5320 ft 14 kts 19°
2026-05-08 01:40 35.04751 -106.61891 5317 ft 8 kts 109°
2026-05-08 01:41 35.04747 -106.61875 5318 ft 0 kts 108°